ROT143J LROP-LRCK

Flight info

Callsign ROT143J
Flight time 0h 23m
Altitude 17000
Route IDARU1K/08L IDARU DCT RIVOS
Aircraft A20N/M-SDE2E3FGHIRWXY/LB1

Departure

Time 2026-05-06 17:26
Airport Bucharest Henri Coandă International Airport (LROP)

Arrival

Time 2026-05-06 17:49
Airport Mihail Kogălniceanu International Airport (LRCK)
Time Latitude Longitude Altitude Speed Heading
2026-05-06 17:00 44.56941 26.09521 309 ft 0 kts 174°
2026-05-06 17:17 44.56936 26.09521 310 ft 1 kts 174°
2026-05-06 17:18 44.56923 26.09523 310 ft 2 kts 180°
2026-05-06 17:18 44.56905 26.09510 309 ft 3 kts 232°
2026-05-06 17:18 44.56896 26.09467 310 ft 5 kts 259°
2026-05-06 17:18 44.56889 26.09401 309 ft 8 kts 261°
2026-05-06 17:19 44.56879 26.09301 307 ft 12 kts 263°
2026-05-06 17:19 44.56870 26.09176 306 ft 13 kts 265°
2026-05-06 17:19 44.56862 26.09038 306 ft 14 kts 265°
2026-05-06 17:19 44.56853 26.08891 305 ft 16 kts 265°
2026-05-06 17:20 44.56846 26.08766 305 ft 9 kts 264°
2026-05-06 17:20 44.56839 26.08676 306 ft 8 kts 264°
2026-05-06 17:20 44.56836 26.08587 306 ft 9 kts 290°
2026-05-06 17:20 44.56895 26.08552 308 ft 9 kts 353°
2026-05-06 17:21 44.56963 26.08543 309 ft 9 kts 355°
2026-05-06 17:21 44.57030 26.08534 309 ft 9 kts 355°
2026-05-06 17:21 44.57096 26.08526 311 ft 9 kts 354°
2026-05-06 17:21 44.57158 26.08517 312 ft 8 kts 354°
2026-05-06 17:22 44.57220 26.08508 313 ft 9 kts 354°
2026-05-06 17:22 44.57288 26.08498 313 ft 10 kts 353°
2026-05-06 17:22 44.57361 26.08487 313 ft 10 kts 353°
2026-05-06 17:22 44.57438 26.08474 313 ft 10 kts 353°
2026-05-06 17:23 44.57472 26.08468 313 ft 0 kts 353°
2026-05-06 17:24 44.57473 26.08468 313 ft 0 kts 353°
2026-05-06 17:24 44.57485 26.08466 313 ft 2 kts 354°
2026-05-06 17:24 44.57520 26.08461 313 ft 8 kts 354°
2026-05-06 17:24 44.57599 26.08451 313 ft 14 kts 355°
2026-05-06 17:25 44.57674 26.08536 313 ft 19 kts 83°
2026-05-06 17:25 44.57688 26.08841 313 ft 58 kts 89°
2026-05-06 17:25 44.57760 26.09763 316 ft 131 kts 83°
2026-05-06 17:25 44.57869 26.11266 623 ft 163 kts 85°
2026-05-06 17:26 44.57983 26.12791 1471 ft 160 kts 86°
2026-05-06 17:26 44.58101 26.14291 2251 ft 162 kts 86°
2026-05-06 17:26 44.58223 26.15951 2778 ft 180 kts 85°
2026-05-06 17:26 44.58354 26.17765 3350 ft 198 kts 84°
2026-05-06 17:27 44.58503 26.19769 3947 ft 216 kts 84°
2026-05-06 17:27 44.58664 26.21906 4547 ft 234 kts 83°
2026-05-06 17:27 44.58841 26.24269 5162 ft 253 kts 83°
2026-05-06 17:27 44.59032 26.26803 5785 ft 271 kts 82°
2026-05-06 17:28 44.59228 26.29432 6596 ft 280 kts 82°
2026-05-06 17:28 44.59427 26.32135 7573 ft 283 kts 82°
2026-05-06 17:28 44.59629 26.34889 8596 ft 284 kts 82°
2026-05-06 17:28 44.59827 26.37602 9584 ft 285 kts 81°
2026-05-06 17:29 44.60030 26.40364 10535 ft 289 kts 81°
2026-05-06 17:29 44.60243 26.43213 11028 ft 305 kts 81°
2026-05-06 17:29 44.60468 26.46266 11496 ft 323 kts 82°
2026-05-06 17:29 44.60704 26.49490 11978 ft 342 kts 82°
2026-05-06 17:30 44.60946 26.52862 12378 ft 360 kts 82°
2026-05-06 17:30 44.61204 26.56457 12750 ft 377 kts 82°
2026-05-06 17:30 44.61464 26.60131 13405 ft 386 kts 82°
2026-05-06 17:30 44.61733 26.63913 14112 ft 391 kts 82°
2026-05-06 17:31 44.62000 26.67712 14841 ft 394 kts 83°
2026-05-06 17:31 44.62266 26.71536 15581 ft 397 kts 83°
2026-05-06 17:31 44.62535 26.75392 16309 ft 400 kts 83°
2026-05-06 17:31 44.62807 26.79311 16817 ft 402 kts 82°
2026-05-06 17:32 44.63076 26.83206 17015 ft 402 kts 82°
2026-05-06 17:32 44.63334 26.87072 17017 ft 401 kts 83°
2026-05-06 17:32 44.63575 26.90988 17021 ft 401 kts 83°
2026-05-06 17:32 44.63808 26.94860 17020 ft 401 kts 83°
2026-05-06 17:33 44.64012 26.98720 17024 ft 401 kts 85°
2026-05-06 17:33 44.64126 27.02670 17036 ft 401 kts 85°
2026-05-06 17:33 44.64225 27.06554 17051 ft 401 kts 86°
2026-05-06 17:33 44.64320 27.10481 17062 ft 401 kts 85°
2026-05-06 17:34 44.64415 27.14350 17063 ft 401 kts 85°
2026-05-06 17:34 44.64509 27.18260 16927 ft 401 kts 85°
2026-05-06 17:34 44.64601 27.22129 16684 ft 399 kts 85°
2026-05-06 17:34 44.64694 27.26005 16432 ft 397 kts 85°
2026-05-06 17:35 44.64785 27.29879 16193 ft 396 kts 85°
2026-05-06 17:35 44.64875 27.33731 15934 ft 395 kts 85°
2026-05-06 17:35 44.64961 27.37535 15698 ft 394 kts 85°
2026-05-06 17:36 44.65132 27.45177 14946 ft 389 kts 85°
2026-05-06 17:36 44.65215 27.48930 14412 ft 386 kts 85°
2026-05-06 17:36 44.65296 27.52670 13850 ft 382 kts 86°
2026-05-06 17:36 44.65373 27.56342 13344 ft 379 kts 86°
2026-05-06 17:37 44.65448 27.60051 13082 ft 378 kts 85°
2026-05-06 17:37 44.65447 27.63729 13081 ft 380 kts 90°
2026-05-06 17:37 44.65187 27.67405 13053 ft 371 kts 96°
2026-05-06 17:37 44.64708 27.70875 13053 ft 352 kts 99°
2026-05-06 17:38 44.64189 27.74141 13065 ft 333 kts 100°
2026-05-06 17:38 44.63701 27.77179 13026 ft 317 kts 100°
2026-05-06 17:38 44.63224 27.80145 12833 ft 307 kts 99°
2026-05-06 17:38 44.62763 27.83034 12643 ft 298 kts 99°
2026-05-06 17:39 44.62318 27.85831 12337 ft 294 kts 99°
2026-05-06 17:39 44.61877 27.88604 11946 ft 292 kts 99°
2026-05-06 17:39 44.61434 27.91381 11550 ft 291 kts 99°
2026-05-06 17:39 44.60994 27.94127 11169 ft 290 kts 99°
2026-05-06 17:40 44.60554 27.96867 10790 ft 288 kts 99°
2026-05-06 17:40 44.60114 27.99612 10402 ft 287 kts 99°
2026-05-06 17:40 44.59682 28.02305 10013 ft 285 kts 99°
2026-05-06 17:40 44.59245 28.05013 9622 ft 284 kts 99°
2026-05-06 17:41 44.58811 28.07703 9234 ft 282 kts 99°
2026-05-06 17:41 44.58382 28.10354 8867 ft 281 kts 99°
2026-05-06 17:41 44.57952 28.13013 8483 ft 279 kts 99°
2026-05-06 17:41 44.57523 28.15655 8109 ft 277 kts 99°
2026-05-06 17:42 44.57098 28.18264 7729 ft 275 kts 99°
2026-05-06 17:42 44.56673 28.20874 7362 ft 273 kts 99°
2026-05-06 17:42 44.56253 28.23452 6986 ft 271 kts 99°
2026-05-06 17:42 44.55838 28.25998 6614 ft 269 kts 100°
2026-05-06 17:43 44.55517 28.28573 6246 ft 265 kts 91°
2026-05-06 17:43 44.55602 28.31128 5886 ft 261 kts 80°
2026-05-06 17:43 44.55901 28.33631 5512 ft 259 kts 78°
2026-05-06 17:43 44.56221 28.36091 5174 ft 256 kts 78°
2026-05-06 17:44 44.56531 28.38507 4997 ft 247 kts 78°
2026-05-06 17:44 44.56822 28.40823 4827 ft 238 kts 80°
2026-05-06 17:44 44.56853 28.43094 4653 ft 232 kts 97°
2026-05-06 17:44 44.56475 28.45252 4470 ft 226 kts 104°
2026-05-06 17:45 44.56015 28.47322 4317 ft 218 kts 105°
2026-05-06 17:45 44.55564 28.49320 4161 ft 210 kts 106°
2026-05-06 17:45 44.54884 28.51071 3998 ft 205 kts 137°
2026-05-06 17:45 44.53613 28.51717 3862 ft 198 kts 175°
2026-05-06 17:46 44.52248 28.51487 3496 ft 200 kts 187°
2026-05-06 17:46 44.50904 28.51118 3272 ft 193 kts 187°
2026-05-06 17:46 44.49609 28.50806 3074 ft 184 kts 185°
2026-05-06 17:46 44.48350 28.50559 2801 ft 181 kts 184°
2026-05-06 17:47 44.47103 28.50354 2544 ft 178 kts 183°
2026-05-06 17:47 44.45889 28.50172 2507 ft 178 kts 182°
2026-05-06 17:47 44.44639 28.49995 2503 ft 178 kts 182°
2026-05-06 17:47 44.43423 28.49819 2356 ft 177 kts 183°
2026-05-06 17:48 44.42175 28.49632 1940 ft 179 kts 183°
2026-05-06 17:48 44.40979 28.49447 1574 ft 171 kts 182°
2026-05-06 17:48 44.39779 28.49322 993 ft 178 kts 182°
2026-05-06 17:48 44.38561 28.49144 635 ft 171 kts 184°
2026-05-06 17:49 44.37412 28.49012 369 ft 160 kts 181°
2026-05-06 17:49 44.36398 28.48889 324 ft 118 kts 183°
2026-05-06 17:49 44.35952 28.48831 320 ft 43 kts 183°
2026-05-06 17:49 44.35663 28.48798 317 ft 39 kts 186°
2026-05-06 17:50 44.35400 28.48747 314 ft 32 kts 189°
2026-05-06 17:50 44.35244 28.48706 314 ft 21 kts 196°
2026-05-06 17:50 44.35142 28.48616 316 ft 0 kts 222°